sat.trackr.live / text

‹ back to catalog

STARLINK-31151

NORAD 58742 · 2024-005Q

PAYLOAD ACTIVE UNKNOWN

§ Identity

Operator
Country
US
Launch date
2024-01-07
Launch site
AFETR
Launch vehicle
Mass (kg)
RCS (m²)

Purposes: comms

External: N2YO · Heavens-Above · Gunter

§ Orbital elements

Epoch: 2026-09-20T12:41:13.407360Z

Period
94.27 min
Inclination
43.0018°
Eccentricity
0.0001076
Mean motion
15.27578912 rev/d
Perigee alt
482.3 km
Apogee alt
483.8 km
Semi-major
6,861.2 km
B*
1.4370e-5
RAAN
199.2548°
Arg perigee
268.7487°
Mean anomaly
91.3241°
Rev number
15,033

§ Raw data

STARLINK-311511 58742U 24005Q   26263.52862740  .00000133  00000+0  14370-4 0  99952 58742  43.0018 199.2548 0001076 268.7487  91.3241 15.27578912150337

JSON: /api/v1/satellites/58742 · /tle

For live sub-satellite position, see the globe view (requires WebGL).

§ Visibility from observer

Set your observer location to see the next 7 days of passes ≥ 10°. The values pass through the URL so the page stays shareable.

No JS? Fill the form by hand. The geolocation button needs JavaScript.